Time,TemperatureF,DewpointF,PressureIn,WindDirection,WindDirectionDegrees,WindSpeedMPH,WindSpeedGustMPH,Humidity,HourlyPrecipIn,Conditions,Clouds,dailyrainin,SoftwareType,DateUTC
2013-01-17 00:00:00,31.1,31.1,29.82,South,180,2.2,4.6,100,0.00,RA,,0.00,WeatherDisplay:10.37,2013-01-17 05:00:00,
2013-01-17 00:02:00,30.9,30.9,29.82,South,180,2.0,3.5,100,0.00,RA,,0.00,WeatherDisplay:10.37,2013-01-17 05:02:00,
2013-01-17 00:03:00,31.1,31.1,29.81,SSW,210,1.0,3.5,100,0.00,RA,,0.00,WeatherDisplay:10.37,2013-01-17 05:03:00,
2013-01-17 00:04:00,31.1,31.1,29.81,SW,223,1.7,4.0,100,0.00,RA,,0.00,WeatherDisplay:10.37,2013-01-17 05:04:00,
2013-01-17 00:09:00,30.9,30.9,29.81,South,189,2.8,5.8,100,0.00,RA,,0.00,WeatherDisplay:10.37,2013-01-17 05:09:00,
2013-01-17 00:14:00,30.9,30.9,29.82,South,188,2.8,4.6,100,0.00,,,0.00,WeatherDisplay:10.37,2013-01-17 05:14:00,
2013-01-17 00:19:00,30.9,30.9,29.82,South,180,3.3,5.0,100,0.00,,,0.00,WeatherDisplay:10.37,2013-01-17 05:19:00,
2013-01-17 00:25:00,30.9,30.9,29.82,SW,231,1.6,3.5,100,0.00,,,0.00,WeatherDisplay:10.37,2013-01-17 05:25:00,
2013-01-17 00:30:00,30.9,30.9,29.82,SSW,198,1.0,4.0,100,0.00,,,0.00,WeatherDisplay:10.37,2013-01-17 05:30:00,
2013-01-17 00:35:00,30.7,30.7,29.82,SSW,193,2.0,3.0,100,0.00,,,0.00,WeatherDisplay:10.37,2013-01-17 05:35:00,
2013-01-17 00:40:00,30.7,30.7,29.83,SSW,205,3.4,5.0,100,0.00,,,0.00,WeatherDisplay:10.37,2013-01-17 05:40:00,
2013-01-17 00:45:00,31.1,31.1,29.83,West,268,1.8,4.0,100,0.00,,,0.00,WeatherDisplay:10.37,2013-01-17 05:45:00,
2013-01-17 00:50:00,31.4,31.4,29.83,South,182,2.7,4.6,100,0.00,,,0.00,WeatherDisplay:10.37,2013-01-17 05:50:00,
2013-01-17 00:55:00,31.0,31.0,29.83,South,190,5.5,9.0,100,0.00,,,0.00,WeatherDisplay:10.37,2013-01-17 05:55:00,
2013-01-17 01:01:00,31.3,31.3,29.82,SW,226,3.3,6.0,100,0.00,,,0.00,WeatherDisplay:10.37,2013-01-17 06:01:00,
2013-01-17 01:06:00,31.2,31.2,29.83,SSW,203,1.4,4.0,100,0.00,,,0.00,WeatherDisplay:10.37,2013-01-17 06:06:00,
2013-01-17 01:11:00,31.2,31.2,29.83,SW,218,2.4,5.0,100,0.00,,,0.00,WeatherDisplay:10.37,2013-01-17 06:11:00,
2013-01-17 01:16:00,31.4,31.4,29.83,WSW,241,3.9,5.8,100,0.00,,,0.00,WeatherDisplay:10.37,2013-01-17 06:16:00,
2013-01-17 01:22:00,31.3,31.3,29.84,South,173,2.4,5.8,100,0.00,,,0.00,WeatherDisplay:10.37,2013-01-17 06:22:00,
2013-01-17 01:27:00,31.2,31.2,29.84,SW,220,4.6,8.0,100,0.00,,,0.00,WeatherDisplay:10.37,2013-01-17 06:27:00,
2013-01-17 01:32:00,31.2,31.2,29.84,WSW,239,3.7,7.0,100,0.00,,,0.00,WeatherDisplay:10.37,2013-01-17 06:32:00,
2013-01-17 01:37:00,31.4,31.4,29.84,WSW,245,3.2,6.9,100,0.00,,,0.00,WeatherDisplay:10.37,2013-01-17 06:37:00,
2013-01-17 01:42:00,31.0,31.0,29.84,South,183,2.3,4.6,100,0.00,,,0.00,WeatherDisplay:10.37,2013-01-17 06:42:00,
2013-01-17 01:48:00,31.4,31.4,29.84,SSW,202,3.6,6.9,100,0.00,,,0.00,WeatherDisplay:10.37,2013-01-17 06:48:00,
2013-01-17 01:53:00,31.6,31.6,29.84,SW,232,3.2,5.8,100,0.00,,,0.00,WeatherDisplay:10.37,2013-01-17 06:53:00,
2013-01-17 01:58:00,31.6,31.6,29.84,WSW,248,3.7,5.0,100,0.00,,,0.00,WeatherDisplay:10.37,2013-01-17 06:58:00,
2013-01-17 02:03:00,31.4,31.4,29.84,SSW,197,3.3,6.9,100,0.00,,,0.00,WeatherDisplay:10.37,2013-01-17 07:03:00,
2013-01-17 02:09:00,31.6,31.6,29.84,SSE,166,3.3,6.0,100,0.00,,,0.00,WeatherDisplay:10.37,2013-01-17 07:09:00,
2013-01-17 02:14:00,31.7,31.7,29.84,SW,219,3.2,8.1,100,0.00,,,0.00,WeatherDisplay:10.37,2013-01-17 07:14:00,
2013-01-17 02:19:00,31.6,31.6,29.84,WSW,247,1.7,4.0,100,0.00,,,0.00,WeatherDisplay:10.37,2013-01-17 07:19:00,
2013-01-17 02:24:00,31.4,31.4,29.84,SW,219,2.1,4.0,100,0.00,,,0.00,WeatherDisplay:10.37,2013-01-17 07:24:00,
2013-01-17 02:29:00,31.6,31.6,29.84,WSW,239,2.5,8.1,100,0.00,,,0.00,WeatherDisplay:10.37,2013-01-17 07:29:00,
2013-01-17 02:35:00,31.3,31.3,29.84,SW,215,1.7,5.8,100,0.00,,,0.00,WeatherDisplay:10.37,2013-01-17 07:35:00,
2013-01-17 02:40:00,31.4,31.4,29.84,SW,223,2.0,5.0,100,0.00,,,0.00,WeatherDisplay:10.37,2013-01-17 07:40:00,
2013-01-17 02:45:00,31.2,31.2,29.84,SW,234,1.0,7.0,100,0.00,,,0.00,WeatherDisplay:10.37,2013-01-17 07:45:00,
2013-01-17 02:50:00,31.2,31.2,29.84,SW,233,3.0,7.0,100,0.00,,,0.00,WeatherDisplay:10.37,2013-01-17 07:50:00,
2013-01-17 02:55:00,31.2,31.2,29.84,SW,225,2.0,6.0,100,0.00,,,0.00,WeatherDisplay:10.37,2013-01-17 07:55:00,
2013-01-17 03:00:00,31.1,31.1,29.84,SW,218,1.0,5.0,100,0.00,,,0.00,WeatherDisplay:10.37,2013-01-17 08:00:00,
2013-01-17 03:05:00,31.1,31.1,29.83,SW,217,2.0,6.0,100,0.00,,,0.00,WeatherDisplay:10.37,2013-01-17 08:05:00,
2013-01-17 03:10:00,31.0,31.0,29.83,WSW,239,5.5,9.2,100,0.00,,,0.00,WeatherDisplay:10.37,2013-01-17 08:10:00,
2013-01-17 03:15:00,30.9,30.9,29.83,South,189,2.1,3.5,100,0.00,,,0.00,WeatherDisplay:10.37,2013-01-17 08:15:00,
2013-01-17 03:20:00,31.2,31.2,29.83,SW,217,3.2,6.0,100,0.00,,,0.00,WeatherDisplay:10.37,2013-01-17 08:20:00,
2013-01-17 03:25:00,31.1,31.1,29.83,WSW,248,4.1,6.9,100,0.00,,,0.00,WeatherDisplay:10.37,2013-01-17 08:25:00,
2013-01-17 03:30:00,31.1,31.1,29.83,SSW,200,3.0,4.0,100,0.00,,,0.00,WeatherDisplay:10.37,2013-01-17 08:30:00,
2013-01-17 03:36:00,30.7,30.7,29.83,SW,216,3.1,6.9,100,0.00,,,0.00,WeatherDisplay:10.37,2013-01-17 08:36:00,
2013-01-17 03:41:00,30.6,30.6,29.83,SW,229,1.8,4.6,100,0.00,,,0.00,WeatherDisplay:10.37,2013-01-17 08:41:00,
2013-01-17 03:46:00,30.9,30.9,29.83,SSW,207,1.8,4.0,100,0.00,,,0.00,WeatherDisplay:10.37,2013-01-17 08:46:00,
2013-01-17 03:51:00,30.5,30.5,29.83,SW,219,3.2,5.0,100,0.00,,,0.00,WeatherDisplay:10.37,2013-01-17 08:51:00,
2013-01-17 03:56:00,30.4,30.4,29.83,SW,221,3.3,7.0,100,0.00,,,0.00,WeatherDisplay:10.37,2013-01-17 08:56:00,
2013-01-17 04:01:00,30.6,30.6,29.83,WSW,243,3.4,6.0,100,0.00,,,0.00,WeatherDisplay:10.37,2013-01-17 09:01:00,
2013-01-17 04:06:00,30.5,30.5,29.84,SSW,208,1.8,7.0,100,0.00,,,0.00,WeatherDisplay:10.37,2013-01-17 09:06:00,
2013-01-17 04:12:00,30.6,30.6,29.83,SSW,197,3.7,4.6,100,0.00,,,0.00,WeatherDisplay:10.37,2013-01-17 09:12:00,
2013-01-17 04:17:00,30.3,30.3,29.83,SSW,212,2.7,6.9,100,0.00,,,0.00,WeatherDisplay:10.37,2013-01-17 09:17:00,
2013-01-17 04:22:00,30.1,30.1,29.83,SW,227,4.3,6.0,100,0.00,,,0.00,WeatherDisplay:10.37,2013-01-17 09:22:00,
2013-01-17 04:27:00,30.5,30.5,29.83,SSW,198,3.3,5.8,100,0.00,,,0.00,WeatherDisplay:10.37,2013-01-17 09:27:00,
2013-01-17 04:32:00,30.4,30.4,29.82,SW,221,3.1,5.8,100,0.00,,,0.00,WeatherDisplay:10.37,2013-01-17 09:32:00,
2013-01-17 04:37:00,30.1,30.1,29.82,SSW,208,2.6,4.6,100,0.00,,,0.00,WeatherDisplay:10.37,2013-01-17 09:37:00,
2013-01-17 04:43:00,30.5,30.5,29.83,SSW,206,2.0,4.6,100,0.00,,,0.00,WeatherDisplay:10.37,2013-01-17 09:43:00,
2013-01-17 04:48:00,30.2,30.2,29.83,SSW,198,3.0,6.9,100,0.00,,,0.00,WeatherDisplay:10.37,2013-01-17 09:48:00,
2013-01-17 04:53:00,30.2,30.2,29.82,SSE,162,0.3,3.5,100,0.00,,,0.00,WeatherDisplay:10.37,2013-01-17 09:53:00,
2013-01-17 04:58:00,30.1,30.1,29.83,WSW,252,3.8,4.6,100,0.00,,,0.00,WeatherDisplay:10.37,2013-01-17 09:58:00,
2013-01-17 05:04:00,30.2,30.2,29.82,SW,216,2.4,4.6,100,0.00,,,0.00,WeatherDisplay:10.37,2013-01-17 10:04:00,
2013-01-17 05:09:00,30.3,30.3,29.83,South,188,1.9,5.8,100,0.00,,,0.00,WeatherDisplay:10.37,2013-01-17 10:09:00,
2013-01-17 05:14:00,30.1,30.1,29.83,SW,218,3.1,6.0,100,0.00,,,0.00,WeatherDisplay:10.37,2013-01-17 10:14:00,
2013-01-17 05:19:00,30.2,30.2,29.83,SW,215,4.1,7.0,100,0.00,,,0.00,WeatherDisplay:10.37,2013-01-17 10:19:00,
2013-01-17 05:24:00,30.2,30.2,29.83,SW,231,2.7,8.0,100,0.00,,,0.00,WeatherDisplay:10.37,2013-01-17 10:24:00,
2013-01-17 05:29:00,30.1,30.1,29.83,SSW,211,3.7,6.9,100,0.00,,,0.00,WeatherDisplay:10.37,2013-01-17 10:29:00,
2013-01-17 05:35:00,30.2,30.2,29.84,SSW,213,2.0,5.0,100,0.00,,,0.00,WeatherDisplay:10.37,2013-01-17 10:35:00,
2013-01-17 05:40:00,30.1,30.1,29.84,SW,215,3.0,6.0,100,0.00,,,0.00,WeatherDisplay:10.37,2013-01-17 10:40:00,
2013-01-17 05:45:00,30.3,30.3,29.84,SW,226,5.0,8.0,100,0.00,,,0.00,WeatherDisplay:10.37,2013-01-17 10:45:00,
2013-01-17 05:50:00,30.3,30.3,29.84,SW,214,3.0,9.0,100,0.00,,,0.00,WeatherDisplay:10.37,2013-01-17 10:50:00,
2013-01-17 05:55:00,30.3,30.3,29.85,SW,215,5.0,9.0,100,0.00,,,0.00,WeatherDisplay:10.37,2013-01-17 10:55:00,
2013-01-17 06:00:00,30.1,30.1,29.85,SSW,212,5.0,9.0,100,0.00,,,0.00,WeatherDisplay:10.37,2013-01-17 11:00:00,
2013-01-17 06:05:00,30.2,30.2,29.85,SW,216,5.0,9.0,100,0.00,,,0.00,WeatherDisplay:10.37,2013-01-17 11:05:00,
2013-01-17 06:10:00,30.4,30.4,29.86,SSE,167,5.5,8.1,100,0.00,,,0.00,WeatherDisplay:10.37,2013-01-17 11:10:00,
2013-01-17 06:15:00,29.9,29.9,29.86,SSW,192,4.2,8.1,100,0.00,,,0.00,WeatherDisplay:10.37,2013-01-17 11:15:00,
2013-01-17 06:20:00,29.9,29.9,29.85,WSW,242,3.5,5.8,100,0.00,,,0.00,WeatherDisplay:10.37,2013-01-17 11:20:00,
2013-01-17 06:25:00,29.9,29.9,29.85,South,177,2.7,4.6,100,0.00,,,0.00,WeatherDisplay:10.37,2013-01-17 11:25:00,
2013-01-17 06:31:00,29.9,29.9,29.85,SW,231,4.9,8.1,100,0.00,,,0.00,WeatherDisplay:10.37,2013-01-17 11:31:00,
2013-01-17 06:36:00,30.1,30.1,29.86,South,183,4.2,8.1,100,0.00,,,0.00,WeatherDisplay:10.37,2013-01-17 11:36:00,
2013-01-17 06:41:00,29.7,29.7,29.86,South,171,1.9,4.6,100,0.00,,,0.00,WeatherDisplay:10.37,2013-01-17 11:41:00,
2013-01-17 06:46:00,29.9,29.9,29.87,WSW,255,4.1,5.8,100,0.00,,,0.00,WeatherDisplay:10.37,2013-01-17 11:46:00,
2013-01-17 06:51:00,29.5,29.5,29.87,SW,221,2.8,5.0,100,0.00,,,0.00,WeatherDisplay:10.37,2013-01-17 11:51:00,
2013-01-17 06:57:00,29.9,29.9,29.87,SSW,210,3.1,5.8,100,0.00,,,0.00,WeatherDisplay:10.37,2013-01-17 11:57:00,
2013-01-17 07:02:00,29.7,29.7,29.87,SSW,202,3.8,8.0,100,0.00,,,0.00,WeatherDisplay:10.37,2013-01-17 12:02:00,
2013-01-17 07:07:00,29.9,29.9,29.87,SW,228,3.2,4.6,100,0.00,,,0.00,WeatherDisplay:10.37,2013-01-17 12:07:00,
2013-01-17 07:12:00,29.9,29.9,29.88,South,187,3.1,8.1,100,0.00,,,0.00,WeatherDisplay:10.37,2013-01-17 12:12:00,
2013-01-17 07:17:00,29.6,29.6,29.88,South,185,3.6,8.1,100,0.00,,,0.00,WeatherDisplay:10.37,2013-01-17 12:17:00,
2013-01-17 07:23:00,29.6,29.6,29.89,SSW,213,3.7,6.0,100,0.00,,,0.00,WeatherDisplay:10.37,2013-01-17 12:23:00,
2013-01-17 07:28:00,29.9,29.9,29.89,WSW,240,2.7,5.8,100,0.00,,,0.00,WeatherDisplay:10.37,2013-01-17 12:28:00,
2013-01-17 07:33:00,29.8,29.8,29.89,West,260,3.6,5.8,100,0.00,,,0.00,WeatherDisplay:10.37,2013-01-17 12:33:00,
2013-01-17 07:38:00,30.0,30.0,29.90,South,180,3.7,5.0,100,0.00,,,0.00,WeatherDisplay:10.37,2013-01-17 12:38:00,
2013-01-17 07:44:00,29.8,29.8,29.90,SW,236,3.0,5.0,100,0.00,,,0.00,WeatherDisplay:10.37,2013-01-17 12:44:00,
2013-01-17 07:49:00,30.0,30.0,29.91,WSW,243,1.9,6.9,100,0.00,,,0.00,WeatherDisplay:10.37,2013-01-17 12:49:00,
2013-01-17 07:54:00,30.1,30.1,29.91,South,185,2.0,5.8,100,0.00,,,0.00,WeatherDisplay:10.37,2013-01-17 12:54:00,
2013-01-17 07:59:00,30.3,30.3,29.91,West,268,3.0,5.8,100,0.00,,,0.00,WeatherDisplay:10.37,2013-01-17 12:59:00,
2013-01-17 08:04:00,30.5,30.5,29.91,SW,228,1.1,3.5,100,0.00,,,0.00,WeatherDisplay:10.37,2013-01-17 13:04:00,
2013-01-17 08:09:00,30.5,30.5,29.91,WSW,237,2.2,3.0,100,0.00,,,0.00,WeatherDisplay:10.37,2013-01-17 13:09:00,
2013-01-17 08:15:00,30.8,30.8,29.91,SSW,208,2.8,6.0,100,0.00,,,0.00,WeatherDisplay:10.37,2013-01-17 13:15:00,
2013-01-17 08:20:00,31.0,31.0,29.92,SW,221,3.0,7.0,100,0.00,,,0.00,WeatherDisplay:10.37,2013-01-17 13:20:00,
2013-01-17 08:25:00,31.1,31.1,29.92,SW,224,3.0,7.0,100,0.00,,,0.00,WeatherDisplay:10.37,2013-01-17 13:25:00,
2013-01-17 08:30:00,31.5,31.5,29.93,SW,224,2.0,6.0,100,0.00,,,0.00,WeatherDisplay:10.37,2013-01-17 13:30:00,
2013-01-17 08:35:00,31.7,31.7,29.92,SSW,208,2.0,8.0,100,0.00,,,0.00,WeatherDisplay:10.37,2013-01-17 13:35:00,
2013-01-17 08:40:00,32.1,32.1,29.92,South,184,1.3,5.0,100,0.00,,,0.00,WeatherDisplay:10.37,2013-01-17 13:40:00,
2013-01-17 08:45:00,32.2,32.2,29.93,South,183,0.8,4.0,100,0.00,,,0.00,WeatherDisplay:10.37,2013-01-17 13:45:00,
2013-01-17 08:50:00,32.4,32.4,29.93,SW,234,3.0,5.8,100,0.00,,,0.00,WeatherDisplay:10.37,2013-01-17 13:50:00,
2013-01-17 08:55:00,32.4,32.4,29.93,WSW,240,2.2,4.0,100,0.00,,,0.00,WeatherDisplay:10.37,2013-01-17 13:55:00,
2013-01-17 09:00:00,32.5,32.5,29.93,SW,226,4.5,8.0,100,0.00,,,0.00,WeatherDisplay:10.37,2013-01-17 14:00:00,
2013-01-17 09:06:00,32.5,32.5,29.94,SW,216,2.8,4.6,100,0.00,,,0.00,WeatherDisplay:10.37,2013-01-17 14:06:00,
2013-01-17 09:11:00,32.6,32.6,29.94,WSW,255,3.0,6.0,100,0.00,,,0.00,WeatherDisplay:10.37,2013-01-17 14:11:00,
2013-01-17 09:16:00,32.7,32.7,29.94,WSW,241,2.4,4.0,100,0.00,,,0.00,WeatherDisplay:10.37,2013-01-17 14:16:00,
2013-01-17 09:21:00,32.7,32.7,29.94,WSW,240,3.6,10.4,100,0.00,,,0.00,WeatherDisplay:10.37,2013-01-17 14:21:00,
2013-01-17 09:26:00,32.8,32.8,29.94,SSW,208,3.1,6.9,100,0.00,,,0.00,WeatherDisplay:10.37,2013-01-17 14:26:00,
2013-01-17 09:31:00,33.4,33.4,29.95,SSW,199,3.5,5.0,100,0.00,,,0.00,WeatherDisplay:10.37,2013-01-17 14:31:00,
2013-01-17 09:36:00,33.6,33.6,29.94,South,187,3.0,8.1,100,0.00,,,0.00,WeatherDisplay:10.37,2013-01-17 14:36:00,
2013-01-17 09:41:00,34.1,34.1,29.95,SSW,211,2.2,6.9,100,0.00,,,0.00,WeatherDisplay:10.37,2013-01-17 14:41:00,
2013-01-17 09:46:00,34.6,34.6,29.94,SSW,197,4.7,6.0,100,0.00,,,0.00,WeatherDisplay:10.37,2013-01-17 14:46:00,
2013-01-17 09:52:00,35.3,35.3,29.94,WSW,258,2.3,4.6,100,0.00,,,0.00,WeatherDisplay:10.37,2013-01-17 14:52:00,
2013-01-17 09:57:00,35.3,35.3,29.94,SW,227,2.7,7.0,100,0.00,,,0.00,WeatherDisplay:10.37,2013-01-17 14:57:00,
2013-01-17 10:02:00,35.9,35.9,29.94,SSW,201,6.2,10.4,100,0.00,,,0.00,WeatherDisplay:10.37,2013-01-17 15:02:00,
2013-01-17 10:07:00,36.0,36.0,29.94,SSW,213,3.5,6.9,100,0.00,,,0.00,WeatherDisplay:10.37,2013-01-17 15:07:00,
2013-01-17 10:12:00,36.3,36.3,29.95,SW,234,5.6,10.0,100,0.00,,,0.00,WeatherDisplay:10.37,2013-01-17 15:12:00,
2013-01-17 10:18:00,36.9,36.9,29.95,West,269,3.7,11.5,100,0.00,,,0.00,WeatherDisplay:10.37,2013-01-17 15:18:00,
2013-01-17 10:23:00,37.2,37.2,29.95,South,179,3.8,7.0,100,0.00,,,0.00,WeatherDisplay:10.37,2013-01-17 15:23:00,
2013-01-17 10:28:00,37.9,37.9,29.94,SW,230,6.5,8.1,100,0.00,,,0.00,WeatherDisplay:10.37,2013-01-17 15:28:00,
2013-01-17 10:33:00,38.4,38.4,29.93,South,181,5.0,10.0,100,0.00,CLR,,0.00,WeatherDisplay:10.37,2013-01-17 15:33:00,
2013-01-17 10:38:00,38.4,38.4,29.93,SW,228,6.7,13.0,100,0.00,CLR,,0.00,WeatherDisplay:10.37,2013-01-17 15:38:00,
2013-01-17 10:44:00,38.5,38.5,29.94,WSW,257,4.8,8.0,100,0.00,CLR,,0.00,WeatherDisplay:10.37,2013-01-17 15:44:00,
2013-01-17 10:49:00,38.7,38.7,29.94,SSW,203,7.1,11.5,100,0.01,RA,,0.01,WeatherDisplay:10.37,2013-01-17 15:49:00,
2013-01-17 10:54:00,38.8,38.8,29.94,SW,227,5.5,12.0,100,0.01,RA,,0.01,WeatherDisplay:10.37,2013-01-17 15:54:00,
2013-01-17 10:59:00,38.7,38.7,29.94,West,274,6.0,9.2,100,0.01,CLR,,0.01,WeatherDisplay:10.37,2013-01-17 15:59:00,
2013-01-17 11:04:00,39.0,39.0,29.94,WSW,257,8.0,11.5,100,0.01,CLR,,0.02,WeatherDisplay:10.37,2013-01-17 16:04:00,
2013-01-17 11:10:00,39.0,39.0,29.94,SW,232,7.0,12.0,100,0.00,RA,RA,0.02,WeatherDisplay:10.37,2013-01-17 16:10:00,
2013-01-17 11:15:00,39.2,39.2,29.94,WSW,245,5.0,10.0,100,0.00,,,0.02,WeatherDisplay:10.37,2013-01-17 16:15:00,
2013-01-17 11:20:00,39.6,39.6,29.94,WSW,245,7.0,12.0,100,0.00,CLR,CLR,0.02,WeatherDisplay:10.37,2013-01-17 16:20:00,
2013-01-17 11:25:00,39.3,39.3,29.94,SW,232,6.3,9.0,100,0.02,CLR,,0.02,WeatherDisplay:10.37,2013-01-17 16:25:00,
2013-01-17 11:30:00,39.6,39.6,29.94,WSW,241,6.0,15.0,100,0.00,RA,RA,0.03,WeatherDisplay:10.37,2013-01-17 16:30:00,
2013-01-17 11:35:00,39.5,39.5,29.94,WSW,243,7.0,15.0,100,0.00,RA,RA,0.03,WeatherDisplay:10.37,2013-01-17 16:35:00,
2013-01-17 11:40:00,39.4,39.4,29.94,West,281,4.8,9.2,100,0.03,,,0.03,WeatherDisplay:10.37,2013-01-17 16:40:00,
2013-01-17 11:45:00,39.2,39.2,29.93,West,278,6.8,10.4,100,0.04,RA,,0.04,WeatherDisplay:10.37,2013-01-17 16:45:00,
2013-01-17 11:50:00,39.6,39.6,29.94,West,271,6.5,11.5,100,0.03,RA,,0.04,WeatherDisplay:10.37,2013-01-17 16:50:00,
2013-01-17 11:55:00,39.4,39.4,29.94,West,263,7.8,10.0,100,0.03,CLR,,0.04,WeatherDisplay:10.37,2013-01-17 16:55:00,
2013-01-17 12:01:00,39.7,39.7,29.94,WNW,288,2.8,11.5,100,0.03,CLR,,0.04,WeatherDisplay:10.37,2013-01-17 17:01:00,
2013-01-17 12:06:00,39.4,39.4,29.93,NNW,330,4.4,10.0,100,0.03,RA,,0.05,WeatherDisplay:10.37,2013-01-17 17:06:00,
2013-01-17 12:11:00,39.9,39.9,29.93,West,265,8.8,11.5,100,0.03,RA,,0.05,WeatherDisplay:10.37,2013-01-17 17:11:00,
2013-01-17 12:16:00,40.2,40.2,29.93,NW,307,2.5,8.1,100,0.04,RA,,0.06,WeatherDisplay:10.37,2013-01-17 17:16:00,
2013-01-17 12:21:00,40.6,40.6,29.93,WSW,243,3.2,11.5,100,0.04,RA,,0.06,WeatherDisplay:10.37,2013-01-17 17:21:00,
2013-01-17 12:27:00,40.3,40.3,29.93,WNW,286,7.8,15.0,100,0.04,,,0.06,WeatherDisplay:10.37,2013-01-17 17:27:00,
2013-01-17 12:32:00,40.3,40.0,29.93,NW,306,5.2,11.5,99,0.04,RA,,0.07,WeatherDisplay:10.37,2013-01-17 17:32:00,
2013-01-17 12:37:00,40.0,39.2,29.93,West,270,10.6,17.3,97,0.04,RA,,0.07,WeatherDisplay:10.37,2013-01-17 17:37:00,
2013-01-17 12:42:00,40.0,39.7,29.93,West,263,7.3,8.0,99,0.05,RA,,0.08,WeatherDisplay:10.37,2013-01-17 17:42:00,
2013-01-17 12:48:00,40.6,40.3,29.93,WNW,284,5.4,11.5,99,0.04,RA,,0.08,WeatherDisplay:10.37,2013-01-17 17:48:00,
2013-01-17 12:53:00,41.1,40.8,29.95,WNW,287,3.6,9.2,99,0.04,CLR,,0.08,WeatherDisplay:10.37,2013-01-17 17:53:00,
2013-01-17 12:58:00,40.9,40.6,29.94,West,269,5.2,8.1,99,0.05,RA,,0.09,WeatherDisplay:10.37,2013-01-17 17:58:00,
2013-01-17 13:03:00,41.1,40.8,29.94,SW,224,3.5,9.0,99,0.05,RA,,0.09,WeatherDisplay:10.37,2013-01-17 18:03:00,
2013-01-17 13:08:00,41.3,40.5,29.94,WNW,294,6.2,13.8,97,0.05,RA,,0.10,WeatherDisplay:10.37,2013-01-17 18:08:00,
2013-01-17 13:13:00,41.1,40.0,29.93,NW,312,6.1,11.5,96,0.05,RA,,0.10,WeatherDisplay:10.37,2013-01-17 18:13:00,
2013-01-17 13:19:00,41.4,40.6,29.94,WNW,284,2.7,6.9,97,0.04,CLR,,0.10,WeatherDisplay:10.37,2013-01-17 18:19:00,
2013-01-17 13:24:00,41.3,40.8,29.94,West,269,6.3,10.4,98,0.05,RA,,0.11,WeatherDisplay:10.37,2013-01-17 18:24:00,
2013-01-17 13:29:00,41.1,39.8,29.94,NW,312,4.8,9.2,95,0.06,RA,,0.12,WeatherDisplay:10.37,2013-01-17 18:29:00,
2013-01-17 13:34:00,40.8,40.0,29.95,West,279,3.9,6.0,97,0.05,RA,,0.12,WeatherDisplay:10.37,2013-01-17 18:34:00,
2013-01-17 13:39:00,41.0,40.2,29.94,NNW,338,4.2,9.2,97,0.05,,,0.12,WeatherDisplay:10.37,2013-01-17 18:39:00,
2013-01-17 13:45:00,40.9,40.1,29.94,WNW,288,7.0,13.0,97,0.00,RA,RA,0.13,WeatherDisplay:10.37,2013-01-17 18:45:00,
2013-01-17 13:50:00,41.0,40.7,29.95,West,276,3.3,8.1,99,0.05,RA,,0.13,WeatherDisplay:10.37,2013-01-17 18:50:00,
2013-01-17 13:55:00,40.9,40.7,29.95,West,271,6.0,12.0,99,0.00,RA,RA,0.14,WeatherDisplay:10.37,2013-01-17 18:55:00,
2013-01-17 14:00:00,40.9,39.8,29.95,West,272,8.0,13.0,96,0.00,RA,RA,0.14,WeatherDisplay:10.37,2013-01-17 19:00:00,
2013-01-17 14:05:00,40.9,39.9,29.96,West,278,6.0,12.0,96,0.00,,,0.14,WeatherDisplay:10.37,2013-01-17 19:05:00,
2013-01-17 14:10:00,40.7,39.7,29.96,WNW,289,6.0,12.0,96,0.00,CLR,CLR,0.14,WeatherDisplay:10.37,2013-01-17 19:10:00,
2013-01-17 14:15:00,40.7,39.7,29.96,WNW,287,5.0,12.0,96,0.00,RA,RA,0.15,WeatherDisplay:10.37,2013-01-17 19:15:00,
2013-01-17 14:20:00,40.5,39.2,29.96,West,264,8.0,15.0,95,0.00,RA,RA,0.15,WeatherDisplay:10.37,2013-01-17 19:20:00,
2013-01-17 14:25:00,40.7,40.0,29.96,West,260,5.0,12.0,97,0.00,RA,RA,0.16,WeatherDisplay:10.37,2013-01-17 19:25:00,
2013-01-17 14:30:00,40.6,39.8,29.97,WSW,256,5.0,17.0,97,0.00,RA,RA,0.16,WeatherDisplay:10.37,2013-01-17 19:30:00,
2013-01-17 14:35:00,40.7,39.9,29.97,West,276,5.0,10.0,97,0.00,,,0.16,WeatherDisplay:10.37,2013-01-17 19:35:00,
2013-01-17 14:40:00,40.4,39.6,29.97,West,259,8.4,13.8,97,0.04,CLR,,0.16,WeatherDisplay:10.37,2013-01-17 19:40:00,
2013-01-17 14:45:00,40.6,39.5,29.98,NW,322,5.4,10.4,96,0.04,RA,,0.17,WeatherDisplay:10.37,2013-01-17 19:45:00,
2013-01-17 14:50:00,40.9,39.8,29.98,WNW,297,5.7,8.1,96,0.04,RA,,0.17,WeatherDisplay:10.37,2013-01-17 19:50:00,
2013-01-17 14:55:00,40.7,39.9,29.97,WNW,292,5.5,7.0,97,0.03,,,0.17,WeatherDisplay:10.37,2013-01-17 19:55:00,
2013-01-17 15:00:00,40.7,39.4,29.97,WNW,294,6.3,11.0,95,0.04,RA,,0.18,WeatherDisplay:10.37,2013-01-17 20:00:00,
2013-01-17 15:06:00,40.5,39.2,29.98,WNW,297,5.6,10.4,95,0.04,RA,,0.18,WeatherDisplay:10.37,2013-01-17 20:06:00,
2013-01-17 15:11:00,40.7,39.9,29.98,WNW,288,2.4,9.2,97,0.04,CLR,,0.18,WeatherDisplay:10.37,2013-01-17 20:11:00,
2013-01-17 15:16:00,40.5,39.4,29.98,West,281,4.3,8.1,96,0.04,RA,,0.19,WeatherDisplay:10.37,2013-01-17 20:16:00,
2013-01-17 15:21:00,40.5,39.2,29.98,West,281,4.6,7.0,95,0.04,RA,,0.19,WeatherDisplay:10.37,2013-01-17 20:21:00,
2013-01-17 15:26:00,40.6,39.5,29.99,WSW,253,3.3,8.1,96,0.03,,,0.19,WeatherDisplay:10.37,2013-01-17 20:26:00,
2013-01-17 15:31:00,40.2,37.2,29.99,West,274,8.8,13.8,89,0.03,CLR,,0.19,WeatherDisplay:10.37,2013-01-17 20:31:00,
2013-01-17 15:37:00,40.1,36.8,29.99,WNW,283,5.4,8.1,88,0.04,RA,,0.20,WeatherDisplay:10.37,2013-01-17 20:37:00,
2013-01-17 15:42:00,40.1,36.5,29.99,WNW,299,4.0,8.0,87,0.04,RA,,0.20,WeatherDisplay:10.37,2013-01-17 20:42:00,
2013-01-17 15:47:00,39.7,35.3,29.99,NW,319,4.1,6.9,84,0.03,CLR,,0.20,WeatherDisplay:10.37,2013-01-17 20:47:00,
2013-01-17 15:52:00,40.0,33.4,29.99,NW,313,3.1,5.8,77,0.03,CLR,,0.20,WeatherDisplay:10.37,2013-01-17 20:52:00,
2013-01-17 15:57:00,39.9,30.9,29.99,NW,307,4.9,6.9,70,0.02,CLR,,0.20,WeatherDisplay:10.37,2013-01-17 20:57:00,
2013-01-17 16:02:00,39.8,31.2,29.99,NW,316,3.3,5.8,71,0.02,CLR,,0.20,WeatherDisplay:10.37,2013-01-17 21:02:00,
2013-01-17 16:07:00,39.9,30.2,30.00,NW,319,2.1,4.6,68,0.02,CLR,,0.20,WeatherDisplay:10.37,2013-01-17 21:07:00,
2013-01-17 16:13:00,39.8,30.5,30.00,North,0,2.5,4.0,69,0.02,CLR,,0.20,WeatherDisplay:10.37,2013-01-17 21:13:00,
2013-01-17 16:18:00,39.2,29.5,30.01,North,8,4.1,10.0,68,0.01,CLR,,0.20,WeatherDisplay:10.37,2013-01-17 21:18:00,
2013-01-17 16:23:00,39.1,30.1,30.00,North,355,2.3,6.0,70,0.01,CLR,,0.20,WeatherDisplay:10.37,2013-01-17 21:23:00,
2013-01-17 16:28:00,38.4,29.5,30.00,NNW,339,2.8,6.0,70,0.01,CLR,,0.20,WeatherDisplay:10.37,2013-01-17 21:28:00,
2013-01-17 16:34:00,38.3,29.7,30.01,North,355,2.2,4.6,71,0.00,CLR,,0.20,WeatherDisplay:10.37,2013-01-17 21:34:00,
2013-01-17 16:39:00,38.1,29.5,30.01,NW,315,1.9,5.8,71,0.00,CLR,,0.20,WeatherDisplay:10.37,2013-01-17 21:39:00,
2013-01-17 16:44:00,37.6,29.0,30.01,NW,315,4.5,8.1,71,0.00,CLR,,0.20,WeatherDisplay:10.37,2013-01-17 21:44:00,
2013-01-17 16:49:00,37.6,28.7,30.01,NNW,333,3.0,5.0,70,0.00,CLR,,0.20,WeatherDisplay:10.37,2013-01-17 21:49:00,
2013-01-17 16:54:00,37.3,27.7,30.02,NW,309,4.1,6.9,68,0.00,CLR,,0.20,WeatherDisplay:10.37,2013-01-17 21:54:00,
2013-01-17 16:59:00,37.1,27.9,30.03,NW,322,1.1,3.5,69,0.00,CLR,,0.20,WeatherDisplay:10.37,2013-01-17 21:59:00,
2013-01-17 17:05:00,37.1,27.9,30.03,NNW,337,2.0,5.0,69,0.00,CLR,CLR,0.20,WeatherDisplay:10.37,2013-01-17 22:05:00,
2013-01-17 17:10:00,37.1,27.2,30.03,NW,323,1.0,4.0,67,0.00,CLR,CLR,0.20,WeatherDisplay:10.37,2013-01-17 22:10:00,
2013-01-17 17:15:00,37.2,27.6,30.02,NW,322,1.0,2.0,68,0.00,RA,RA,0.21,WeatherDisplay:10.37,2013-01-17 22:15:00,
2013-01-17 17:20:00,36.9,27.7,30.02,NW,322,1.2,3.5,69,0.01,RA,,0.21,WeatherDisplay:10.37,2013-01-17 22:20:00,
2013-01-17 17:25:00,37.1,27.5,30.03,NW,322,2.0,4.0,68,0.00,CLR,CLR,0.21,WeatherDisplay:10.37,2013-01-17 22:25:00,
2013-01-17 17:30:00,37.0,27.1,30.03,NW,322,3.0,5.0,67,0.00,CLR,CLR,0.21,WeatherDisplay:10.37,2013-01-17 22:30:00,
2013-01-17 17:35:00,36.7,26.8,30.04,NW,322,0.6,3.0,67,0.01,CLR,,0.21,WeatherDisplay:10.37,2013-01-17 22:35:00,
2013-01-17 17:40:00,36.7,26.4,30.05,NW,311,2.9,4.6,66,0.01,CLR,,0.21,WeatherDisplay:10.37,2013-01-17 22:40:00,
2013-01-17 17:45:00,36.7,26.4,30.04,WNW,298,3.4,4.0,66,0.01,CLR,,0.21,WeatherDisplay:10.37,2013-01-17 22:45:00,
2013-01-17 17:51:00,36.7,26.4,30.03,NW,322,2.7,3.5,66,0.01,CLR,,0.21,WeatherDisplay:10.37,2013-01-17 22:51:00,
2013-01-17 17:56:00,36.7,26.4,30.04,North,0,2.1,3.5,66,0.01,CLR,,0.21,WeatherDisplay:10.37,2013-01-17 22:56:00,
2013-01-17 18:01:00,36.5,25.8,30.04,NW,324,1.7,3.5,65,0.01,CLR,,0.21,WeatherDisplay:10.37,2013-01-17 23:01:00,
2013-01-17 18:06:00,36.3,26.0,30.04,NW,319,1.0,3.0,66,0.01,CLR,,0.21,WeatherDisplay:10.37,2013-01-17 23:06:00,
2013-01-17 18:11:00,36.3,25.7,30.05,NW,326,1.5,3.5,65,0.01,CLR,,0.21,WeatherDisplay:10.37,2013-01-17 23:11:00,
2013-01-17 18:16:00,36.1,25.5,30.05,NW,315,3.4,5.0,65,0.00,CLR,,0.21,WeatherDisplay:10.37,2013-01-17 23:16:00,
2013-01-17 18:22:00,35.8,24.8,30.05,North,0,2.1,3.5,64,0.00,CLR,,0.21,WeatherDisplay:10.37,2013-01-17 23:22:00,
2013-01-17 18:27:00,36.0,24.2,30.05,North,2,4.5,6.9,62,0.00,CLR,,0.21,WeatherDisplay:10.37,2013-01-17 23:27:00,
2013-01-17 18:32:00,35.7,23.2,30.06,NW,314,5.2,7.0,60,0.00,CLR,,0.21,WeatherDisplay:10.37,2013-01-17 23:32:00,
2013-01-17 18:37:00,35.7,23.9,30.06,North,349,1.4,3.5,62,0.00,CLR,,0.21,WeatherDisplay:10.37,2013-01-17 23:37:00,
2013-01-17 18:42:00,35.6,23.5,30.07,NW,319,2.1,4.0,61,0.00,CLR,,0.21,WeatherDisplay:10.37,2013-01-17 23:42:00,
2013-01-17 18:47:00,35.4,22.9,30.08,NW,325,4.7,7.0,60,0.00,CLR,,0.21,WeatherDisplay:10.37,2013-01-17 23:47:00,
2013-01-17 18:53:00,35.2,22.7,30.08,NW,304,5.1,8.1,60,0.00,CLR,,0.21,WeatherDisplay:10.37,2013-01-17 23:53:00,
2013-01-17 18:58:00,35.0,22.1,30.07,NW,305,3.9,7.0,59,0.00,CLR,,0.21,WeatherDisplay:10.37,2013-01-17 23:58:00,
2013-01-17 19:03:00,35.1,22.2,30.06,WNW,297,1.5,3.5,59,0.00,CLR,,0.21,WeatherDisplay:10.37,2013-01-18 00:03:00,
2013-01-17 19:08:00,34.9,21.6,30.04,NNW,327,3.9,6.9,58,0.00,CLR,,0.21,WeatherDisplay:10.37,2013-01-18 00:08:00,
2013-01-17 19:13:00,34.7,21.8,30.05,WNW,283,2.1,3.5,59,0.00,CLR,,0.21,WeatherDisplay:10.37,2013-01-18 00:13:00,
2013-01-17 19:19:00,34.7,21.8,30.06,NNW,348,2.6,3.5,59,0.00,CLR,,0.21,WeatherDisplay:10.37,2013-01-18 00:19:00,
2013-01-17 19:24:00,34.4,21.1,30.06,NNW,341,3.6,5.8,58,0.00,CLR,,0.21,WeatherDisplay:10.37,2013-01-18 00:24:00,
2013-01-17 19:29:00,34.4,21.1,30.07,NW,311,2.2,4.6,58,0.00,CLR,,0.21,WeatherDisplay:10.37,2013-01-18 00:29:00,
2013-01-17 19:34:00,34.2,20.9,30.08,NW,308,2.9,3.5,58,0.00,CLR,,0.21,WeatherDisplay:10.37,2013-01-18 00:34:00,
2013-01-17 19:39:00,34.2,20.5,30.08,NW,308,4.2,5.8,57,0.00,CLR,,0.21,WeatherDisplay:10.37,2013-01-18 00:39:00,
2013-01-17 19:44:00,33.8,20.2,30.08,NW,315,2.8,5.0,57,0.00,CLR,,0.21,WeatherDisplay:10.37,2013-01-18 00:44:00,
2013-01-17 19:50:00,33.9,20.3,30.07,NW,308,3.1,5.8,57,0.00,CLR,,0.21,WeatherDisplay:10.37,2013-01-18 00:50:00,
2013-01-17 19:55:00,33.7,19.6,30.07,NNW,339,3.0,7.0,56,0.00,CLR,CLR,0.21,WeatherDisplay:10.37,2013-01-18 00:55:00,
2013-01-17 20:00:00,33.5,19.9,30.07,NNW,344,2.0,7.0,57,0.00,CLR,CLR,0.21,WeatherDisplay:10.37,2013-01-18 01:00:00,
2013-01-17 20:05:00,33.5,19.8,30.07,NNW,339,2.0,7.0,57,0.00,CLR,CLR,0.21,WeatherDisplay:10.37,2013-01-18 01:05:00,
2013-01-17 20:10:00,33.2,19.6,30.08,NNW,339,2.0,8.0,57,0.00,CLR,CLR,0.21,WeatherDisplay:10.37,2013-01-18 01:10:00,
2013-01-17 20:15:00,33.0,19.0,30.07,NNW,334,5.0,8.0,56,0.00,CLR,CLR,0.21,WeatherDisplay:10.37,2013-01-18 01:15:00,
2013-01-17 20:20:00,32.9,18.9,30.07,NW,322,3.0,6.0,56,0.00,CLR,CLR,0.21,WeatherDisplay:10.37,2013-01-18 01:20:00,
2013-01-17 20:25:00,32.8,18.4,30.07,NW,316,4.5,8.1,55,0.00,CLR,,0.21,WeatherDisplay:10.37,2013-01-18 01:25:00,
2013-01-17 20:30:00,32.6,18.2,30.07,NW,324,3.0,6.0,55,0.00,CLR,CLR,0.21,WeatherDisplay:10.37,2013-01-18 01:30:00,
2013-01-17 20:35:00,32.6,18.2,30.07,NW,322,3.0,8.0,55,0.00,CLR,CLR,0.21,WeatherDisplay:10.37,2013-01-18 01:35:00,
2013-01-17 20:40:00,32.6,18.2,30.06,NW,321,3.0,7.0,55,0.00,CLR,CLR,0.21,WeatherDisplay:10.37,2013-01-18 01:40:00,
2013-01-17 20:45:00,32.4,18.0,30.06,NNW,329,3.0,9.0,55,0.00,CLR,CLR,0.21,WeatherDisplay:10.37,2013-01-18 01:45:00,
2013-01-17 20:50:00,32.2,17.8,30.06,NW,319,2.7,3.5,55,0.00,CLR,,0.21,WeatherDisplay:10.37,2013-01-18 01:50:00,
2013-01-17 20:55:00,32.1,17.8,30.07,NNW,341,5.0,10.0,55,0.00,CLR,CLR,0.21,WeatherDisplay:10.37,2013-01-18 01:55:00,
2013-01-17 21:00:00,32.1,17.7,30.06,North,354,3.0,9.0,55,0.00,CLR,CLR,0.21,WeatherDisplay:10.37,2013-01-18 02:00:00,
2013-01-17 21:05:00,32.0,17.2,30.06,NNW,347,2.0,8.0,54,0.00,CLR,CLR,0.21,WeatherDisplay:10.37,2013-01-18 02:05:00,
2013-01-17 21:10:00,31.8,16.6,30.06,North,0,3.2,9.2,53,0.00,CLR,,0.21,WeatherDisplay:10.37,2013-01-18 02:10:00,
2013-01-17 21:15:00,31.6,16.0,30.06,WNW,301,2.7,8.1,52,0.00,CLR,,0.21,WeatherDisplay:10.37,2013-01-18 02:15:00,
2013-01-17 21:20:00,31.5,15.9,30.07,NW,311,3.5,5.8,52,0.00,CLR,,0.21,WeatherDisplay:10.37,2013-01-18 02:20:00,
2013-01-17 21:25:00,31.6,16.0,30.07,NW,315,4.7,8.1,52,0.00,CLR,,0.21,WeatherDisplay:10.37,2013-01-18 02:25:00,
2013-01-17 21:31:00,31.2,15.2,30.07,NW,318,4.4,5.8,51,0.00,CLR,,0.21,WeatherDisplay:10.37,2013-01-18 02:31:00,
2013-01-17 21:36:00,31.3,15.7,30.07,NNW,342,3.3,4.6,52,0.00,CLR,,0.21,WeatherDisplay:10.37,2013-01-18 02:36:00,
2013-01-17 21:41:00,31.2,16.0,30.08,NW,306,1.9,3.5,53,0.00,CLR,,0.21,WeatherDisplay:10.37,2013-01-18 02:41:00,
2013-01-17 21:46:00,31.3,16.6,30.07,NNW,328,4.0,4.6,54,0.00,CLR,,0.21,WeatherDisplay:10.37,2013-01-18 02:46:00,
2013-01-17 21:51:00,31.3,15.7,30.07,NW,318,3.3,6.0,52,0.00,CLR,,0.21,WeatherDisplay:10.37,2013-01-18 02:51:00,
2013-01-17 21:56:00,31.2,16.0,30.06,NW,316,2.1,6.0,53,0.00,CLR,,0.21,WeatherDisplay:10.37,2013-01-18 02:56:00,
2013-01-17 22:02:00,31.2,15.6,30.05,North,356,4.4,6.9,52,0.00,CLR,,0.21,WeatherDisplay:10.37,2013-01-18 03:02:00,
2013-01-17 22:07:00,30.8,15.2,30.05,NW,311,4.3,9.2,52,0.00,CLR,,0.21,WeatherDisplay:10.37,2013-01-18 03:07:00,
2013-01-17 22:12:00,30.8,15.7,30.05,North,356,3.6,6.0,53,0.00,CLR,,0.21,WeatherDisplay:10.37,2013-01-18 03:12:00,
2013-01-17 22:17:00,30.8,15.2,30.05,WNW,302,3.7,7.0,52,0.00,CLR,,0.21,WeatherDisplay:10.37,2013-01-18 03:17:00,
2013-01-17 22:22:00,30.9,15.8,30.06,NW,311,2.8,3.5,53,0.00,CLR,,0.21,WeatherDisplay:10.37,2013-01-18 03:22:00,
2013-01-17 22:28:00,30.6,15.0,30.07,NW,312,3.1,4.6,52,0.00,CLR,,0.21,WeatherDisplay:10.37,2013-01-18 03:28:00,
2013-01-17 22:33:00,30.7,14.7,30.07,NW,313,4.0,6.9,51,0.00,CLR,,0.21,WeatherDisplay:10.37,2013-01-18 03:33:00,
2013-01-17 22:38:00,30.6,15.0,30.07,NW,314,3.2,4.0,52,0.00,CLR,,0.21,WeatherDisplay:10.37,2013-01-18 03:38:00,
2013-01-17 22:43:00,30.5,14.0,30.08,NNW,327,2.7,8.1,50,0.00,CLR,,0.21,WeatherDisplay:10.37,2013-01-18 03:43:00,
2013-01-17 22:48:00,30.5,14.5,30.08,NW,304,2.1,4.6,51,0.00,CLR,,0.21,WeatherDisplay:10.37,2013-01-18 03:48:00,
2013-01-17 22:54:00,30.3,13.9,30.08,NW,322,3.2,3.5,50,0.00,CLR,,0.21,WeatherDisplay:10.37,2013-01-18 03:54:00,
2013-01-17 22:59:00,30.5,14.5,30.07,NW,318,3.8,6.0,51,0.00,CLR,,0.21,WeatherDisplay:10.37,2013-01-18 03:59:00,
2013-01-17 23:04:00,30.3,13.9,30.07,NW,309,3.4,4.6,50,0.00,CLR,,0.21,WeatherDisplay:10.37,2013-01-18 04:04:00,
2013-01-17 23:09:00,30.1,14.1,30.06,NW,322,1.0,4.6,51,0.00,CLR,,0.21,WeatherDisplay:10.37,2013-01-18 04:09:00,
2013-01-17 23:15:00,30.2,14.2,30.06,NNW,329,3.0,6.0,51,0.00,CLR,CLR,0.21,WeatherDisplay:10.37,2013-01-18 04:15:00,
2013-01-17 23:20:00,30.1,13.6,30.05,NW,326,2.0,6.0,50,0.00,CLR,CLR,0.21,WeatherDisplay:10.37,2013-01-18 04:20:00,
2013-01-17 23:25:00,30.0,13.6,30.05,NW,323,2.0,10.0,50,0.00,CLR,CLR,0.21,WeatherDisplay:10.37,2013-01-18 04:25:00,
2013-01-17 23:30:00,29.9,12.1,30.03,NNW,335,3.0,12.0,47,0.00,CLR,CLR,0.21,WeatherDisplay:10.37,2013-01-18 04:30:00,
2013-01-17 23:35:00,29.5,12.7,30.03,NNW,332,5.0,10.0,49,0.00,CLR,CLR,0.21,WeatherDisplay:10.37,2013-01-18 04:35:00,
2013-01-17 23:40:00,29.7,12.8,30.02,NNW,338,3.0,9.0,49,0.00,CLR,CLR,0.21,WeatherDisplay:10.37,2013-01-18 04:40:00,
2013-01-17 23:45:00,29.5,11.2,30.03,NNW,348,3.0,10.0,46,0.00,CLR,CLR,0.21,WeatherDisplay:10.37,2013-01-18 04:45:00,
2013-01-17 23:50:00,29.4,10.6,30.05,NNW,345,2.0,8.0,45,0.00,CLR,CLR,0.21,WeatherDisplay:10.37,2013-01-18 04:50:00,
2013-01-17 23:55:00,29.3,11.1,30.05,NNW,329,2.0,6.0,46,0.00,CLR,CLR,0.21,WeatherDisplay:10.37,2013-01-18 04:55:00,